GW2951 Weather Reports


time (UTC)temp
C
wind
direction
speed
KPH
gust
KPH
rain 1hr
cm
rain 24hr
cm
rain mn
cm
humidity
%
barometer
mb
20260504191611 25 98 11.3 19.3 0.00 6.50 3.40 83 1013.4
20260504190056 25 87 9.7 16.1 0.00 6.50 3.40 84 1013.6
20260504184554 25 76 11.3 16.1 0.00 8.03 3.40 84 1013.8
20260504183055 25 107 14.5 17.7 0.00 8.03 3.40 83 1013.8
20260504181601 25 99 14.5 19.3 0.00 8.03 3.40 83 1013.9
20260504180059 25 96 16.1 20.9 0.00 8.03 3.40 83 1014.1
20260504174555 25 88 17.7 22.5 0.00 8.03 3.40 83 1014.1
20260504173054 25 90 14.5 19.3 0.00 8.03 3.40 84 1014.3
20260504171558 25 84 14.5 19.3 0.00 8.03 3.40 84 1014.3
20260504090107 23 63 4.8 14.5 0.00 8.03 3.40 91 1012.5
20260504081555 22 36 8.0 14.5 0.84 8.03 3.40 92 1012.3
20260504044605 24 240 3.2 14.5 0.10 4.83 0.10 89 1014.6
20260504043054 24 244 8.0 17.7 0.00 4.72 0.00 88 1014.5
20260504041553 23 252 9.7 17.7 0.00 4.72 0.00 88 1014.3
20260504040110 23 227 8.0 16.1 0.00 4.72 0.00 88 1014.3
20260504034600 24 245 11.3 22.5 0.05 4.85 4.72 89 1014.1
20260504033055 23 229 9.7 17.7 0.05 4.85 4.72 89 1014.0
20260504031552 23 245 11.3 22.5 0.05 4.85 4.72 88 1014.3
20260504030052 24 261 11.3 22.5 0.05 4.85 4.72 87 1014.3
20260504024550 23 215 9.7 17.7 0.00 4.80 4.67 86 1015.0
20260504023053 24 201 8.0 24.1 0.00 4.80 4.67 87 1014.7
20260504021553 23 207 6.4 25.7 0.00 4.80 4.67 87 1014.8
20260504020052 23 152 11.3 29.0 0.00 4.80 4.67 87 1014.7
20260504014555 25 217 12.9 27.4 0.00 4.80 4.67 86 1014.4
20260504013103 25 206 3.2 12.9 0.00 4.80 4.67 85 1014.3
20260504011553 25 239 3.2 6.4 0.00 4.80 4.67 84 1014.2
20260504010101 25 0 0.0 4.8 0.00 4.80 4.67 85 1013.8
20260504004606 25 126 1.6 9.7 0.00 4.80 4.67 85 1013.8
20260504003055 25 132 4.8 11.3 0.00 4.80 4.67 87 1013.7
20260504001555 25 0 1.6 8.0 0.00 4.80 4.67 86 1013.6
20260504000132 25 154 1.6 8.0 0.00 4.80 4.67 85 1013.3
20260503234554 25 0 0.0 8.0 0.00 4.80 4.67 86 1013.2
20260503233055 25 138 1.6 6.4 0.00 4.80 4.67 85 1012.9
20260503231558 25 169 1.6 8.0 0.00 4.80 4.67 85 1012.7
20260503224555 25 200 1.6 9.7 0.00 4.80 4.67 86 1013.1
20260503223054 25 123 3.2 6.4 0.00 4.80 4.67 86 1012.6
20260503221559 24 117 3.2 9.7 0.00 4.80 4.67 87 1012.6
20260503220118 23 148 1.6 4.8 0.00 4.80 4.67 88 1012.5
20260503214558 23 84 3.2 9.7 0.00 4.80 4.67 89 1012.9
20260503213103 23 87 1.6 6.4 0.00 4.80 4.67 90 1012.7
20260503211559 23 132 1.6 6.4 0.03 4.80 4.67 90 1012.8
20260503210059 23 150 3.2 8.0 0.43 4.80 4.67 91 1013.1
20260503204605 22 113 4.8 14.5 0.76 4.80 4.67 91 1013.7
20260503203059 22 36 8.0 17.7 0.91 4.80 4.67 91 1014.1
20260503201555 22 86 3.2 11.3 1.96 4.78 4.65 90 1013.7
20260503200101 22 101 1.6 6.4 2.62 4.37 4.24 90 1014.3
20260503194556 22 0 0.0 6.4 2.29 4.04 3.91 90 1014.5
20260503193100 22 156 1.6 6.4 2.13 3.89 3.76 89 1014.6